Weather at San Antonio Del Tachira Airport

Public forecast

Using degrees Celsius for public forecast. Weather courtesy of forecast.io.

Current aviation weather report (METAR) for San Antonio Del Tachira Airport

Report is more than 6 hours old.

Retrieved 2020/10/23 22:00 UTC (2 years ago):

SVSA 232200Z 0Z 2400/2500 06002KT 9999 SCT013 TX35/2419Z TN24/2408Z TEMPO 2400/2404 27004KT 9000 DZ SCT013

Aviation forecast (TAF) for San Antonio Del Tachira Airport

Forecast is more than 12 hours old.

Retrieved 2022/08/11 12:03 UTC (2 days ago):

TAF SVSA 111000Z 1112/1212 00000KT 9999 SCT020 TX31/0519Z TN19/0608Z TEMPO 1113/1116 15004KT 9000 DZ BKN020